Haines, AK

7:59 AM AKST on February 27, 2017 (GMT -0900)
Haines

Weather History for PAHN - July, 2013

Change the Weather History Date:

Wednesday, July 17, 2013

  Actual Average Record
Temperature  
Mean Temperature 62 °F -  
Max Temperature 73 °F 61 °F 79 °F (1989)
Min Temperature 53 °F 50 °F 44 °F (1978)
Degree Days  
Heating Degree Days 2    
Growing Degree Days 12 (Base 50)    
Moisture  
Dew Point 54 °F    
Average Humidity 74    
Maximum Humidity 94    
Minimum Humidity 57    
Precipitation  
Precipitation 0.00 in - - ()
Sea Level Pressure  
Sea Level Pressure 29.98 in    
Wind  
Wind Speed 3 mph (SE)    
Max Wind Speed 12 mph    
Max Gust Speed -    
Visibility 10 miles    
Events      
Averages and records for this station are not official NWS values.
T = Trace of Precipitation, MM = Missing Value Source: NWS Daily Summary

Daily Weather History Graph

Daily Weather History Graph

Search for Another Location

Airport or City:

Trip Planner

Search our weather history database for the weather conditions in past years. The results will help you decide how hot, cold, wet, or windy it might be!

Date:

Astronomy

Jul. 17, 2013 Rise Set
Actual Time 4:17 AM AKDT 9:58 PM AKDT
Civil Twilight 3:07 AM AKDT 11:06 PM AKDT
Nautical Twilight 1:40 AM AKDT 12:35 AM AKDT
Astronomical Twilight Sun does not rise Sun does not rise
Moon 4:34 PM AKDT (7/17) 12:01 AM AKDT (7/17)
Length of Visible Light 19h 59m
Length of Day
17h 40m
Waxing Gibbous, 68% of the Moon is Illuminated
Jul 17
Waxing Gibbous
Jul 22
Full
Jul 29
Last Quarter
Aug 6
New
Aug 14
First Quarter

Hourly Weather History & Observations

Time (AKDT) Temp. Dew Point Humidity Pressure Visibility Wind Dir Wind Speed Gust Speed Precip Events Conditions
12:54 AM 55.0 °F 53.1 °F 93% 30.04 in 10.0 mi Calm Calm - N/A   Clear
1:27 AM 53.6 °F 51.8 °F 94% 30.03 in 10.0 mi Calm Calm - N/A   Partly Cloudy
1:54 AM 54.0 °F 52.0 °F 93% 30.04 in 10.0 mi Calm Calm - N/A   Clear
2:54 AM 55.0 °F 52.0 °F 89% 30.04 in 10.0 mi Calm Calm - N/A   Clear
3:54 AM 54.0 °F 52.0 °F 93% 30.03 in 10.0 mi Calm Calm - N/A   Clear
4:54 AM 54.0 °F 52.0 °F 93% 30.02 in 10.0 mi Calm Calm - N/A   Clear
5:54 AM 55.0 °F 52.0 °F 89% 30.01 in 10.0 mi Calm Calm - N/A   Clear
6:54 AM 55.9 °F 53.1 °F 90% 30.01 in 10.0 mi Calm Calm - N/A   Clear
7:54 AM 59.0 °F 53.1 °F 81% 30.01 in 10.0 mi WNW 6.9 mph - N/A   Clear
8:54 AM 64.9 °F 55.0 °F 70% 30.00 in 10.0 mi Calm Calm - N/A   Clear
9:54 AM 66.9 °F 55.0 °F 66% 29.98 in 10.0 mi WNW 9.2 mph - N/A   Clear
10:54 AM 66.0 °F 55.9 °F 70% 29.98 in 10.0 mi SSE 4.6 mph - N/A   Clear
11:54 AM 66.0 °F 54.0 °F 65% 29.98 in 10.0 mi SE 4.6 mph - N/A   Clear
12:54 PM 69.1 °F 55.9 °F 63% 29.97 in 10.0 mi SE 6.9 mph - N/A   Clear
1:54 PM 70.0 °F 55.9 °F 61% 29.96 in 10.0 mi SE 10.4 mph - N/A   Clear
2:54 PM 70.0 °F 55.9 °F 61% 29.96 in 10.0 mi SE 11.5 mph - N/A   Clear
3:54 PM 72.0 °F 55.9 °F 57% 29.95 in 10.0 mi SE 10.4 mph - N/A   Clear
4:54 PM 71.1 °F 55.9 °F 59% 29.94 in 10.0 mi ESE 8.1 mph - N/A   Clear
5:54 PM 66.9 °F 57.0 °F 70% 29.94 in 10.0 mi SE 5.8 mph - N/A   Clear
6:54 PM 70.0 °F 55.0 °F 59% 29.93 in 10.0 mi SE 5.8 mph - N/A   Clear
7:54 PM 71.1 °F 57.0 °F 61% 29.93 in 10.0 mi East 3.5 mph - N/A   Clear
8:54 PM 68.0 °F 55.9 °F 65% 29.94 in 10.0 mi ESE 5.8 mph - N/A   Clear
9:54 PM 64.9 °F 55.0 °F 70% 29.96 in 10.0 mi ESE 3.5 mph - N/A   Clear
10:54 PM 66.0 °F 54.0 °F 65% 29.96 in 10.0 mi ESE 8.1 mph - N/A   Clear
11:54 PM 66.0 °F 54.0 °F 65% 29.98 in 10.0 mi East 6.9 mph - N/A   Clear